Date String (YYYY-MM-DD hh:mm:ss) UTC,Instrument flags,absolute air pressure of the measurement (hPa),sample flow rate (lpm),inlet stack bypass flow (lpm),air temperature of the measurement (°C),ambient temperature measured by the external sensor (°C),aerosol sample conditioner tube jacket temperature (°C),OPC LED temperature (°C),internal box temperature (°C),relative humidity of the measurement (%),span deviation,mass concentration of particles derived from Lorenz-Mie calculation of OPC scattering (μg/m³),mass concentration of particles derived from Lorenz-Mie calculation of OPC scattering (μg/m³),mass concentration of particles derived from Lorenz-Mie calculation of OPC scattering (μg/m³)
DateTimeUTC,F1_M11,P_M11,Q1_M11,Q2_M11,T1_M11,T2_M11,T3_M11,T4_M11,T5_M11,U1_M11,ZSPAN_M11,X0_M11,X2_M11,X1_M11
2024-06-14 14:00:00,SystemResetWarning,0833.2,5.00,000.00,031.1,030.6,000.0,039.3,032.8,034.7,0001.1,0043.00,0010.91,0007.63
2024-06-14 14:01:00,SystemResetWarning,0833.2,4.98,000.00,031.0,029.6,000.0,039.4,032.3,034.6,0001.4,0042.13,0010.85,0007.65
2024-06-14 14:02:00,SystemResetWarning,0832.7,5.01,000.00,030.6,027.2,000.0,039.4,031.2,035.5,0001.2,0042.39,0010.84,0007.67
2024-06-14 14:03:00,SystemResetWarning,0832.7,5.01,000.00,030.2,026.3,000.0,039.3,030.7,036.4,0000.8,0043.52,0010.75,0007.66
2024-06-14 14:04:00,SystemResetWarning,0832.7,5.01,000.00,030.0,026.6,000.0,039.2,030.7,036.6,0000.3,0045.18,0010.76,0007.69
2024-06-14 14:05:00,SystemResetWarning,0832.7,5.00,000.00,029.9,027.0,000.0,039.0,031.0,036.8,-000.2,0044.07,0010.86,0007.73
2024-06-14 14:06:00,SystemResetWarning,0832.7,5.00,000.00,029.9,027.5,000.0,038.9,031.2,037.0,-000.7,0042.96,0010.93,0007.78
2024-06-14 14:07:00,SystemResetWarning,0832.7,5.01,000.00,029.9,027.9,000.0,038.8,031.4,037.1,-000.8,0044.24,0010.93,0007.85
2024-06-14 14:08:00,SystemResetWarning,0832.7,5.00,000.00,030.0,028.3,000.0,038.7,031.5,037.0,-000.4,0044.06,0011.03,0007.92
2024-06-14 14:09:00,SystemResetWarning,0832.7,5.00,000.00,030.0,028.6,000.0,038.7,031.6,037.0,0000.0,0043.61,0011.03,0007.94
2024-06-14 14:10:00,SystemResetWarning,0832.8,5.00,000.00,030.0,028.8,000.0,038.7,031.7,036.9,-000.2,0043.91,0011.11,0007.97
2024-06-14 14:11:00,SystemResetWarning,0832.8,5.00,000.00,030.1,029.0,000.0,038.6,031.8,036.7,-000.2,0042.89,0011.12,0008.02
2024-06-14 14:12:00,SystemResetWarning,0832.8,5.00,000.00,030.1,029.2,000.0,038.6,031.9,037.2,-000.2,0043.96,0011.11,0008.04
2024-06-14 14:13:00,SystemResetWarning,0832.8,5.00,000.00,030.2,029.3,000.0,038.6,031.9,037.3,-000.5,0044.78,0011.05,0008.04
2024-06-14 14:14:00,SystemResetWarning,0832.7,5.00,000.00,030.2,029.4,000.0,038.6,032.0,036.8,-000.6,0044.50,0011.14,0008.06
2024-06-14 14:15:00,SystemResetWarning,0832.7,5.00,000.00,030.2,029.5,000.0,038.6,032.0,036.6,-000.8,0043.12,0011.19,0008.07
2024-06-14 14:16:00,SystemResetWarning,0832.7,4.99,000.00,030.3,029.6,000.0,038.6,032.1,036.6,-000.6,0042.19,0011.10,0008.09
2024-06-14 14:17:00,SystemResetWarning,0832.7,5.00,000.00,030.3,029.7,000.0,038.7,032.1,036.3,-000.2,0041.57,0011.15,0008.12
2024-06-14 14:18:00,SystemResetWarning,0832.8,5.00,000.00,030.4,029.8,000.0,038.7,032.2,036.1,-000.1,0039.85,0011.26,0008.16
2024-06-14 14:19:00,SystemResetWarning,0832.9,5.00,000.00,030.4,029.9,000.0,038.7,032.2,036.2,-000.7,0040.44,0011.35,0008.19
2024-06-14 14:20:00,SystemResetWarning,0832.7,5.01,000.00,030.5,029.9,000.0,038.7,032.3,036.4,-001.2,0040.94,0011.37,0008.21
2024-06-14 14:21:00,SystemResetWarning,0832.7,5.01,000.00,030.5,030.0,000.0,038.7,032.3,036.1,-000.4,0041.69,0011.43,0008.24
2024-06-14 14:22:00,SystemResetWarning,0832.7,5.00,000.00,030.6,030.0,000.0,038.8,032.4,036.2,-000.3,0041.73,0011.52,0008.27
2024-06-14 14:23:00,SystemResetWarning,0832.7,5.00,000.00,030.6,030.1,000.0,038.8,032.4,036.5,-000.4,0042.30,0011.65,0008.29
2024-06-14 14:24:00,SystemResetWarning,0832.7,5.00,000.00,030.7,030.1,000.0,038.8,032.4,036.6,-000.2,0042.27,0011.77,0008.31
2024-06-14 14:25:00,SystemResetWarning,0832.7,5.00,000.00,030.7,030.2,000.0,038.9,032.4,036.6,0000.2,0041.95,0011.81,0008.32
2024-06-14 14:26:00,SystemResetWarning,0832.7,5.00,000.00,030.7,030.2,000.0,038.9,032.5,035.7,0000.5,0041.19,0011.82,0008.32
2024-06-14 14:27:00,SystemResetWarning,0832.6,5.00,000.00,030.8,030.2,000.0,038.9,032.5,035.7,0001.3,0041.86,0011.87,0008.34
2024-06-14 14:28:00,SystemResetWarning,0832.6,4.99,000.00,030.6,028.7,000.0,039.0,031.8,036.4,0001.5,0042.47,0011.98,0008.33
2024-06-14 14:29:00,SystemResetWarning,0832.6,5.01,000.00,030.2,026.8,000.0,039.0,030.9,036.8,0002.0,0043.66,0011.90,0008.31
2024-06-14 14:30:00,SystemResetWarning,0832.6,5.02,000.00,029.9,026.4,000.0,039.0,030.6,037.5,0002.0,0044.26,0011.82,0008.31
2024-06-14 14:31:00,SystemResetWarning,0832.6,4.99,000.00,029.7,026.8,000.0,038.8,030.7,038.1,0002.2,0043.62,0011.81,0008.32
2024-06-14 14:32:00,SystemResetWarning,0832.5,4.99,000.00,029.7,027.2,000.0,038.7,030.9,038.4,0001.8,0042.06,0011.83,0008.36
2024-06-14 14:33:00,SystemResetWarning,0832.6,5.00,000.00,029.7,027.6,000.0,038.6,031.1,038.3,0001.4,0043.44,0011.75,0008.35
2024-06-14 14:34:00,SystemResetWarning,0832.6,5.00,000.00,029.8,028.0,000.0,038.5,031.3,038.2,0001.4,0042.81,0011.64,0008.34
2024-06-14 14:35:00,SystemResetWarning,0832.6,5.01,000.00,029.8,028.4,000.0,038.5,031.4,038.5,0001.5,0043.78,0011.58,0008.36
2024-06-14 14:36:00,SystemResetWarning,0832.6,4.99,000.00,029.8,028.6,000.0,038.4,031.5,037.8,0001.6,0046.12,0011.55,0008.38
2024-06-14 14:37:00,SystemResetWarning,0832.6,4.99,000.00,029.9,028.8,000.0,038.4,031.6,037.5,0001.6,0046.80,0011.63,0008.44
2024-06-14 14:38:00,SystemResetWarning,0832.6,5.00,000.00,029.9,029.0,000.0,038.4,031.7,037.4,0001.3,0046.08,0011.69,0008.47
2024-06-14 14:39:00,SystemResetWarning,0832.5,5.00,000.00,030.0,029.2,000.0,038.4,031.8,037.7,0000.7,0046.19,0011.63,0008.49
2024-06-14 14:40:00,SystemResetWarning,0832.6,5.00,000.00,030.0,029.3,000.0,038.4,031.9,037.6,0000.4,0046.46,0011.59,0008.48
2024-06-14 14:41:00,SystemResetWarning,0832.5,5.01,000.00,030.1,029.4,000.0,038.4,031.9,037.2,0000.3,0046.22,0011.57,0008.44
2024-06-14 14:42:00,SystemResetWarning,0832.5,5.01,000.00,030.2,029.5,000.0,038.4,032.0,036.9,0000.4,0046.34,0011.59,0008.43
2024-06-14 14:43:00,SystemResetWarning,0832.5,4.98,000.00,030.2,029.6,000.0,038.5,032.0,037.1,0000.8,0046.62,0011.55,0008.43
2024-06-14 14:44:00,SystemResetWarning,0832.5,4.99,000.00,030.3,029.7,000.0,038.5,032.1,037.0,0000.9,0047.17,0011.55,0008.41
2024-06-14 14:45:00,SystemResetWarning,0832.4,5.00,000.00,030.3,029.8,000.0,038.5,032.1,036.8,0001.2,0047.95,0011.64,0008.40
2024-06-14 14:46:00,SystemResetWarning,0832.5,5.00,000.00,030.4,029.8,000.0,038.5,032.2,036.6,0001.1,0047.11,0011.64,0008.38
2024-06-14 14:47:00,SystemResetWarning,0832.4,5.00,000.00,030.4,029.9,000.0,038.6,032.2,036.5,0000.9,0045.86,0011.64,0008.39
2024-06-14 14:48:00,SystemResetWarning,0832.5,5.01,000.00,030.5,030.0,000.0,038.6,032.3,036.2,0000.6,0044.61,0011.57,0008.35
2024-06-14 14:49:00,SystemResetWarning,0832.5,5.00,000.00,030.5,030.0,000.0,038.6,032.3,036.2,0000.8,0044.97,0011.55,0008.33
2024-06-14 14:50:00,SystemResetWarning,0832.5,5.00,000.00,030.5,030.0,000.0,038.7,032.3,036.2,0001.3,0046.52,0011.51,0008.31
2024-06-14 14:51:00,SystemResetWarning,0832.4,4.98,000.00,030.4,028.4,000.0,038.8,031.5,036.1,0001.6,0046.31,0011.59,0008.35
2024-06-14 14:52:00,SystemResetWarning,0832.3,5.02,000.00,030.0,026.5,000.0,038.8,030.6,037.2,0001.6,0044.99,0011.72,0008.41
2024-06-14 14:53:00,SystemResetWarning,0832.3,5.01,000.00,029.7,026.3,000.0,038.7,030.4,037.7,0001.7,0044.27,0011.67,0008.43
2024-06-14 14:54:00,SystemResetWarning,0832.4,4.98,000.00,029.6,026.7,000.0,038.6,030.6,038.0,0001.8,0045.10,0011.70,0008.46
2024-06-14 14:55:00,SystemResetWarning,0832.4,5.00,000.00,029.6,027.1,000.0,038.4,030.8,038.1,0001.5,0043.86,0011.70,0008.51
2024-06-14 14:56:00,SystemResetWarning,0832.5,5.01,000.00,029.6,027.6,000.0,038.3,031.0,038.1,0001.5,0044.90,0011.74,0008.56
2024-06-14 14:57:00,SystemResetWarning,0832.5,5.00,000.00,029.6,028.0,000.0,038.3,031.2,037.9,0001.2,0046.06,0011.81,0008.62
2024-06-14 14:58:00,SystemResetWarning,0832.5,4.99,000.00,029.7,028.3,000.0,038.3,031.3,037.9,0001.0,0045.31,0011.92,0008.66
2024-06-14 14:59:00,SystemResetWarning,0832.5,4.99,000.00,029.7,028.5,000.0,038.2,031.4,038.1,0000.9,0045.62,0011.93,0008.70
